Location: Bassano
(45.7667°N, 11.7333°E)
Time: 19:01:24
(UTC+00:00)

Cosmos 2333 Rocket - Pass Details

Date: 07 June 2020
Orbit: 839 x 863 km, 70.8° (Epoch: 05 July)

Event Time Altitude Azimuth Distance (km) Brightness Sun altitude
Exits shadow 02:37:36 - 195° (SSW) 3,009 4.5 -7.1°
Reaches altitude 10° 02:39:04 10° 194° (SSW) 2,449 4.1 -6.9°
Maximum altitude 02:44:38 68° 113° (ESE) 905 2.5 -6.2°
Drops below altitude 10° 02:50:17 10° 31° (NNE) 2,479 6.1 -5.5°
Sets 02:52:46 0° 29° (NNE) 3,422 6.9 -5.1°
